ISS DEB (44305 NORAD) Tracking and Keplerian Element Data

This shows tracking and keplerian element data for the satellite.

Feedback or suggestion? Click here.




ElementValue
Catalog44305
NameISS DEB
Epoch Orbit9375
Epoch Day17.99978115
Epoch Year2021
RAAN302.5059
Inclination51.609
Eccentricity0.0006259
Argument of Perigee207.7361
Mean Anonmoly152.333
Mean Motion16.35437524
Decay Rate0.07702457
L11 44305U 98067QC 21017.99978115 .07702457 12184-4 93942-3 0 9998
L22 44305 51.6090 302.5059 0006259 207.7361 152.3330 16.35437524 93752



Live tracking and technical data element details for ISS DEB (NORAD 44305). ISS DEB can be tracked NOW for your location showing map with azimuth and elevation plus other details from your city location.







IsCatalogInMostPopularTable: catalog: 44305, numindb: 25779
Update: records affected: 1



GetName: 44305 ISS DEB

Hit Count: updated at: Thu, 21 May 2026 10:31:22 GMT